Hourly Weather Barpali

Today, 18 April, Sunday

Time Temperature Precipitation Wind Pressure Humidity
00:00 +34°C° 0 mm 1 mps 741 mmHg 20%
01:00 +33°C° 0 mm 1 mps 741 mmHg 21%
02:00 +33°C° 0 mm 1 mps 741 mmHg 22%
03:00 +32°C° 0 mm 2 mps 740 mmHg 23%
04:00 +31°C° 0 mm 2 mps 741 mmHg 25%
05:00 +30°C° 0 mm 1 mps 741 mmHg 27%
06:00 +30°C° 0 mm 1 mps 742 mmHg 28%
07:00 +32°C° 0 mm 2 mps 742 mmHg 28%
08:00 +34°C° 0 mm 2 mps 743 mmHg 27%
09:00 +36°C° 0 mm 2 mps 744 mmHg 27%
10:00 +38°C° 0 mm 2 mps 743 mmHg 23%
11:00 +40°C° 0 mm 2 mps 743 mmHg 19%
12:00 +42°C° 0 mm 2 mps 742 mmHg 15%
13:00 +43°C° 0 mm 2 mps 741 mmHg 14%
14:00 +44°C° 0 mm 3 mps 741 mmHg 12%
15:00 +45°C° 0 mm 3 mps 740 mmHg 10%
16:00 +44°C° 0 mm 3 mps 739 mmHg 10%
17:00 +43°C° 0 mm 2 mps 739 mmHg 10%
18:00 +42°C° 0 mm 2 mps 738 mmHg 10%
19:00 +41°C° 0 mm 2 mps 739 mmHg 12%
20:00 +39°C° 0 mm 2 mps 739 mmHg 13%
21:00 +37°C° 0 mm 1 mps 739 mmHg 14%
22:00 +36°C° 0 mm 1 mps 739 mmHg 15%
23:00 +35°C° 0 mm 1 mps 740 mmHg 17%

Tomorrow, 19 April, Monday

Time Temperature Precipitation Wind Pressure Humidity
00:00 +35°C° 0 mm 2 mps 740 mmHg 18%
01:00 +34°C° 0 mm 2 mps 740 mmHg 20%
02:00 +32°C° 0 mm 2 mps 739 mmHg 23%
03:00 +32°C° 0 mm 2 mps 739 mmHg 25%
04:00 +31°C° 0 mm 2 mps 740 mmHg 28%
05:00 +30°C° 0 mm 2 mps 740 mmHg 31%
06:00 +29°C° 0 mm 1 mps 740 mmHg 34%
07:00 +31°C° 0 mm 2 mps 741 mmHg 33%
08:00 +35°C° 0 mm 2 mps 741 mmHg 31%
09:00 +37°C° 0 mm 2 mps 742 mmHg 30%
10:00 +39°C° 0 mm 2 mps 741 mmHg 24%
11:00 +41°C° 0 mm 1 mps 741 mmHg 18%
12:00 +43°C° 0 mm 1 mps 741 mmHg 12%
13:00 +45°C° 0 mm 2 mps 740 mmHg 11%
14:00 +45°C° 0 mm 2 mps 739 mmHg 10%
15:00 +45°C° 0 mm 3 mps 738 mmHg 9%
16:00 +45°C° 0 mm 2 mps 738 mmHg 9%
17:00 +43°C° 0 mm 2 mps 737 mmHg 9%
18:00 +43°C° 0 mm 2 mps 737 mmHg 9%
19:00 +41°C° 0 mm 2 mps 738 mmHg 10%
20:00 +39°C° 0 mm 1 mps 738 mmHg 11%
21:00 +37°C° 0 mm 1 mps 738 mmHg 12%
22:00 +37°C° 0 mm 2 mps 738 mmHg 12%
23:00 +36°C° 0 mm 2 mps 738 mmHg 13%

Day after tomorrow, 20 April, Tuesday

Time Temperature Precipitation Wind Pressure Humidity
00:00 +36°C° 0 mm 2 mps 738 mmHg 13%
01:00 +35°C° 0 mm 2 mps 738 mmHg 18%
02:00 +33°C° 0 mm 1 mps 738 mmHg 23%
03:00 +31°C° 0 mm 1 mps 738 mmHg 27%
04:00 +31°C° 0 mm 1 mps 738 mmHg 33%
05:00 +30°C° 0 mm 1 mps 739 mmHg 38%
06:00 +29°C° 0 mm 2 mps 739 mmHg 43%
07:00 +32°C° 0 mm 2 mps 739 mmHg 39%
08:00 +35°C° 0 mm 3 mps 740 mmHg 34%
09:00 +38°C° 0 mm 3 mps 741 mmHg 30%
10:00 +40°C° 0 mm 3 mps 740 mmHg 24%
11:00 +43°C° 0 mm 3 mps 740 mmHg 18%
12:00 +45°C° 0 mm 2 mps 739 mmHg 12%
13:00 +46°C° 0 mm 2 mps 738 mmHg 11%
14:00 +46°C° 0 mm 2 mps 738 mmHg 10%
15:00 +47°C° 0 mm 2 mps 737 mmHg 9%
16:00 +46°C° 0 mm 2 mps 737 mmHg 9%
17:00 +46°C° 0 mm 2 mps 736 mmHg 9%
18:00 +45°C° 0 mm 3 mps 736 mmHg 9%
19:00 +42°C° 0 mm 2 mps 737 mmHg 10%
20:00 +40°C° 0 mm 1 mps 737 mmHg 12%
21:00 +37°C° 0 mm 1 mps 738 mmHg 13%
22:00 +38°C° 0 mm 2 mps 738 mmHg 20%
23:00 +37°C° 0 mm 4 mps 738 mmHg 27%

21 April, Wednesday

Time Temperature Precipitation Wind Pressure Humidity
00:00 +36°C° 0 mm 6 mps 738 mmHg 34%
01:00 +35°C° 0 mm 5 mps 738 mmHg 36%
02:00 +34°C° 0 mm 3 mps 738 mmHg 38%
03:00 +32°C° 0 mm 2 mps 737 mmHg 40%
04:00 +31°C° 0 mm 2 mps 738 mmHg 42%
05:00 +31°C° 0 mm 2 mps 739 mmHg 44%
06:00 +30°C° 0 mm 2 mps 739 mmHg 45%
07:00 +34°C° 0 mm 2 mps 740 mmHg 38%
08:00 +37°C° 0 mm 3 mps 741 mmHg 30%
09:00 +41°C° 0 mm 4 mps 741 mmHg 22%
10:00 +42°C° 0 mm 4 mps 741 mmHg 20%
11:00 +44°C° 0 mm 4 mps 740 mmHg 17%
12:00 +47°C° 0 mm 4 mps 740 mmHg 15%
13:00 +48°C° 0 mm 4 mps 739 mmHg 13%
14:00 +47°C° 0 mm 3 mps 738 mmHg 12%
15:00 +48°C° 0 mm 3 mps 737 mmHg 10%
16:00 +47°C° 0 mm 3 mps 736 mmHg 10%
17:00 +47°C° 0 mm 2 mps 736 mmHg 10%
18:00 +46°C° 0 mm 2 mps 736 mmHg 10%
19:00 +43°C° 0 mm 3 mps 737 mmHg 15%
20:00 +41°C° 0 mm 4 mps 738 mmHg 19%
21:00 +37°C° 0 mm 5 mps 738 mmHg 24%
22:00 +37°C° 0 mm 5 mps 739 mmHg 27%
23:00 +36°C° 0 mm 5 mps 739 mmHg 29%

22 April, Thursday

Time Temperature Precipitation Wind Pressure Humidity
00:00 +35°C° 0 mm 5 mps 740 mmHg 32%
01:00 +35°C° 0 mm 4 mps 739 mmHg 33%
02:00 +34°C° 0 mm 3 mps 739 mmHg 35%
03:00 +34°C° 0 mm 2 mps 739 mmHg 36%
04:00 +32°C° 0 mm 2 mps 739 mmHg 37%
05:00 +31°C° 0 mm 2 mps 739 mmHg 39%
06:00 +31°C° 0 mm 2 mps 740 mmHg 40%
07:00 +34°C° 0 mm 2 mps 740 mmHg 33%
08:00 +37°C° 0 mm 3 mps 741 mmHg 27%
09:00 +39°C° 0 mm 3 mps 741 mmHg 20%
10:00 +41°C° 0 mm 2 mps 741 mmHg 17%
11:00 +43°C° 0 mm 2 mps 741 mmHg 14%
12:00 +45°C° 0 mm 2 mps 740 mmHg 11%
13:00 +46°C° 0 mm 2 mps 739 mmHg 11%
14:00 +46°C° 0 mm 2 mps 739 mmHg 10%
15:00 +47°C° 0 mm 2 mps 738 mmHg 10%
16:00 +46°C° 0 mm 2 mps 737 mmHg 10%
17:00 +46°C° 0 mm 2 mps 737 mmHg 10%
18:00 +44°C° 0 mm 1 mps 737 mmHg 10%
19:00 +42°C° 0 mm 2 mps 737 mmHg 12%
20:00 +40°C° 0 mm 2 mps 738 mmHg 15%
21:00 +38°C° 0 mm 2 mps 739 mmHg 17%
22:00 +37°C° 0 mm 2 mps 739 mmHg 20%
23:00 +36°C° 0 mm 3 mps 739 mmHg 22%

23 April, Friday

Time Temperature Precipitation Wind Pressure Humidity
00:00 +36°C° 0 mm 3 mps 739 mmHg 24%
01:00 +35°C° 0 mm 3 mps 739 mmHg 25%
02:00 +34°C° 0 mm 2 mps 738 mmHg 26%
03:00 +32°C° 0 mm 1 mps 738 mmHg 27%
04:00 +31°C° 0 mm 1 mps 738 mmHg 27%
05:00 +31°C° 0 mm 2 mps 739 mmHg 27%
06:00 +30°C° 0 mm 2 mps 739 mmHg 26%
07:00 +34°C° 0 mm 2 mps 740 mmHg 22%
08:00 +36°C° 0 mm 2 mps 741 mmHg 18%
09:00 +39°C° 0 mm 2 mps 741 mmHg 14%
10:00 +41°C° 0 mm 2 mps 741 mmHg 12%
11:00 +42°C° 0 mm 2 mps 740 mmHg 11%
12:00 +45°C° 0 mm 2 mps 740 mmHg 9%
13:00 +45°C° 0 mm 2 mps 739 mmHg 9%
14:00 +46°C° 0 mm 2 mps 738 mmHg 8%
15:00 +46°C° 0 mm 2 mps 738 mmHg 8%
16:00 +45°C° 0 mm 2 mps 738 mmHg 8%
17:00 +45°C° 0 mm 2 mps 737 mmHg 8%
18:00 +43°C° 0 mm 2 mps 737 mmHg 8%
19:00 +41°C° 0 mm 1 mps 738 mmHg 9%
20:00 +39°C° 0 mm 1 mps 738 mmHg 11%
21:00 +36°C° 0 mm 1 mps 739 mmHg 12%
22:00 +36°C° 0 mm 1 mps 739 mmHg 12%
23:00 +35°C° 0 mm 1 mps 739 mmHg 13%
Show more